[TLELIST] Archives

 

Current TLEs

November 8th 2006 PDT

HST 1 20580U 90037B 06311.87164842 .00000558 00000-0 30661-4 0 7351 2 20580 028.4679 193.1825 0003663 263.7720 096.2450 15.00125497706695 ISS (ZARYA) 1 25544U 98067A 06312.38931713 .00009708 00000-0 60115-4 0 168 2 25544 051.6338 164.3262 0012125 186.6892 171.2231 15.77793857455902 CXO 1 25867U 99040B 06310.54166667 +.00000348 +00000-0 +00000-0 0 09974 2 25867 060.5741 093.9696 5944009 288.1949 358.5216 00.37804441001414 ____________________________________________________________________ These 2-Line ...Continue Reading

Current TLEs

November 7th 2006 PDT

HST 1 20580U 90037B 06309.94226912 +.00000539 +00000-0 +29191-4 0 07482 2 20580 028.4680 205.7613 0003804 243.8605 116.1592 15.00123828706404 ISS (ZARYA) 1 25544U 98067A 06311.37444444 .00022767 00000-0 13539-3 0 95 2 25544 051.6351 169.5646 0012341 183.4900 166.0529 15.77794195455745 CXO 1 25867U 99040B 06310.54166667 +.00000348 +00000-0 +00000-0 0 09974 2 25867 060.5741 093.9696 5944009 288.1949 358.5216 00.37804441001414 ____________________________________________________________________ These 2-Line ...Continue Reading

Current TLEs

November 6th 2006 PDT

HST 1 20580U 90037B 06310.14186005 .00000555 00000-0 30399-4 0 7349 2 20580 028.4680 204.4593 0003760 245.4838 114.5362 15.00124111706430 ISS (ZARYA) 1 25544U 98067A 06310.26226852 .00024259 00000-0 14426-3 0 31 2 25544 051.6348 175.3094 0012459 178.2798 329.8818 15.77748241455572 CXO 1 25867U 99040B 06307.87500000 +.00000443 +00000-0 +00000-0 0 09964 2 25867 060.5475 094.0511 5943757 288.2063 355.5469 00.37809287001402 ____________________________________________________________________ These 2-Line ...Continue Reading

Current TLEs

November 5th 2006 PDT

HST 1 20580U 90037B 06308.87778357 .00000522 00000-0 27840-4 0 7333 2 20580 028.4684 212.7012 0003853 232.8409 127.1827 15.00122942706244 ISS (ZARYA) 1 25544U 98067A 06309.34500000 .00025824 00000-0 15358-3 0 9974 2 25544 051.6349 180.0471 0012348 173.3808 161.3448 15.77706761455423 CXO 1 25867U 99040B 06307.87500000 +.00000443 +00000-0 +00000-0 0 09964 2 25867 060.5475 094.0511 5943757 288.2063 355.5469 00.37809287001402 ____________________________________________________________________ These 2-Line ...Continue Reading

Current TLEs

November 4th 2006 PDT

HST 1 20580U 90037B 06307.21452382 .00000529 00000-0 28346-4 0 7325 2 20580 028.4685 223.5434 0003908 215.5583 144.4747 15.00121807705998 ISS (ZARYA) 1 25544U 98067A 06308.46247685 .00021117 00000-0 12669-3 0 9909 2 25544 051.6356 184.6030 0012506 170.9110 187.9738 15.77649258455284 CXO 1 25867U 99040B 06307.87500000 +.00000443 +00000-0 +00000-0 0 09964 2 25867 060.5475 094.0511 5943757 288.2063 355.5469 00.37809287001402 ____________________________________________________________________ These 2-Line ...Continue Reading

Current TLEs

November 3rd 2006 PDT

HST 1 20580U 90037B 06305.95044574 +.00000535 +00000-0 +28832-4 0 07321 2 20580 028.4687 231.7855 0003958 203.7590 156.2815 15.00120972705809 ISS (ZARYA) 1 25544U 98067A 06307.03084147 .00017952 00000-0 10865-3 0 9800 2 25544 051.6344 191.9935 0012779 166.0519 336.4589 15.77580220455061 CXO 1 25867U 99040B 06305.20833333 +.00000504 +00000-0 +00000-0 0 09954 2 25867 060.5236 094.1198 5939762 288.2068 352.6112 00.37807576001395 ____________________________________________________________________ These 2-Line ...Continue Reading

Current TLEs

November 2nd 2006 PDT

HST 1 20580U 90037B 06305.88391534 .00000540 00000-0 29208-4 0 7317 2 20580 028.4687 232.2191 0003950 202.9156 157.1257 15.00120960705794 ISS (ZARYA) 1 25544U 98067A 06306.33634259 .00018671 00000-0 11295-3 0 9758 2 25544 051.6350 195.5795 0012622 163.9531 351.6670 15.77557348454951 CXO 1 25867U 99040B 06305.20833333 +.00000504 +00000-0 +00000-0 0 09954 2 25867 060.5236 094.1198 5939762 288.2068 352.6112 00.37807576001395 ____________________________________________________________________ These 2-Line ...Continue Reading

Current TLEs

November 1st 2006 PDT

HST 1 20580U 90037B 06303.95453244 +.00000474 +00000-0 +24043-4 0 07532 2 20580 028.4692 244.7971 0004001 184.6559 175.3991 15.00119125705502 ISS (ZARYA) 1 25544U 98067A 06305.19283169 .00019980 00000-0 12079-3 0 9699 2 25544 051.6349 201.4842 0012588 159.7273 337.3659 15.77517852454770 CXO 1 25867U 99040B 06305.20833333 +.00000504 +00000-0 +00000-0 0 09954 2 25867 060.5236 094.1198 5939762 288.2068 352.6112 00.37807576001395 ____________________________________________________________________ These 2-Line ...Continue Reading

Current TLEs

October 31st 2006 PDT

HST 1 20580U 90037B 06304.22065410 .00000507 00000-0 26679-4 0 7306 2 20580 028.4690 243.0609 0003985 186.4751 173.5787 15.00119546705548 ISS (ZARYA) 1 25544U 98067A 06304.37303241 .00019557 00000-0 11852-3 0 9656 2 25544 051.6345 205.7152 0012464 156.6953 001.6043 15.77483317454643 CXO 1 25867U 99040B 06302.58333333 +.00000508 +00000-0 +00000-0 0 09940 2 25867 060.5054 094.1721 5934932 288.2335 355.2895 00.37804373001384 ____________________________________________________________________ These 2-Line ...Continue Reading

Current TLEs

October 30th 2006 PDT

HST 1 20580U 90037B 06302.89004429 .00000452 00000-0 22341-4 0 7299 2 20580 028.4694 251.7365 0004017 174.2834 185.7801 15.00118360705344 ISS (ZARYA) 1 25544U 98067A 06303.35671296 .00024170 00000-0 14564-3 0 9606 2 25544 051.6341 210.9647 0012759 152.6540 350.1966 15.77448757454488 CXO 1 25867U 99040B 06302.58333333 +.00000508 +00000-0 +00000-0 0 09940 2 25867 060.5054 094.1721 5934932 288.2335 355.2895 00.37804373001384 ____________________________________________________________________ These 2-Line ...Continue Reading
  • This mailing list is a public mailing list - anyone may join or leave, at any time.
  • This mailing list is announce-only.

International Space Station (ISS) / Hubble Space Telescope (HST) / Chandra X-Ray Observatory Orbital Data via EMAIL

Privacy Policy:

Private list